[[{"header":{"parameterUnit":"m.s-1","parameterCategory":1,"la1":30.2991,"la2":30.254,"lo1":-89.0895,"lo2":-89.0444,"dy":0.0017,"dx":0.0017,"nx":28,"ny":28,"refTime":"2025-06-08T03:00:00:Z","depth":0,"parameterNumber":2,"parameterNumberName":"U-component_of_WINDS"},"data":[0,0,0,0,0,0,0,0,0,0,0,0,0,0,0,0,0,0,0,0,0,0,0,0,0,0,0,0,0,0,0,0,0,0,0,0,0,0,0,0,0,0,0,0,0,0,0,0,0,0,0,0,0,0,0,0,0,0,2.6615,2.6616,0,2.6748,2.6749,2.6751,2.6727,2.6725,2.6722,2.672,2.6864,2.6869,2.6875,0,0,0,0,0,0,0,0,0,0,0,0,0,2.6348,2.6353,2.6615,2.6616,2.6618,2.6748,2.675,2.6751,2.6728,2.6725,2.6722,2.6719,2.6862,2.6869,2.6876,0,0,0,0,0,0,0,0,0,0,0,0,0,2.6471,2.6355,2.6614,2.6622,2.6624,2.6747,2.675,2.6752,2.6728,2.6725,2.6721,2.6718,2.6859,2.6868,2.6877,2.7004,0,0,2.6905,2.6908,0,0,0,0,0,0,0,0,2.6464,2.6481,2.6619,2.6621,2.6624,2.6717,2.6708,2.6837,2.6729,2.6689,2.672,2.6716,2.6818,2.683,2.6863,2.7011,2.7017,2.6905,2.6911,2.6915,2.6917,0,0,0,0,0,0,0,2.6456,2.6475,2.6668,2.6621,2.6624,2.6621,2.6635,2.6732,2.6772,2.6692,2.669,2.6706,2.6819,2.6855,2.6867,2.7019,2.6905,2.6913,2.6919,2.6922,2.7282,2.7285,0,0,0,0,0,0,2.6444,2.6468,2.6663,2.6672,2.6533,2.6629,2.6644,2.6691,2.6771,2.6779,2.6709,2.6705,2.6841,2.6856,2.6872,2.7028,2.6915,2.6923,2.6928,2.7278,2.7282,2.7287,0,0,0,0,0,0,2.6438,2.6462,2.6658,2.657,2.6594,2.6637,2.669,2.6695,2.6731,2.6784,2.6791,2.6738,2.6839,2.6859,2.6972,2.7032,2.6927,2.6935,2.7273,2.7279,2.7285,2.734,0,0,0,0,0,0,2.6431,2.646,2.6506,2.6571,2.6599,2.6753,2.6694,2.6701,2.6746,2.6741,2.6813,2.6821,2.6838,2.6958,2.6981,2.7043,2.6943,2.7267,2.7275,2.7283,2.7333,2.7347,2.7359,0,0,0,0,0,2.6421,2.6517,2.6508,2.6532,2.6658,2.6757,2.6773,2.6788,2.6751,2.68,2.6834,2.6819,2.7022,2.697,2.6995,2.7061,2.7264,2.7273,2.7282,2.7327,2.7344,2.7359,0,0,0,0,0,0,2.646,2.6525,2.6517,2.6635,2.6691,2.6752,2.6814,2.6806,2.6874,2.6867,2.6885,2.6901,2.7016,2.705,2.6991,2.719,2.7138,2.7153,2.7164,2.7181,2.7194,2.7183,2.695,0,0,0,0,0,2.6482,2.6554,2.6609,2.6709,2.6736,2.6771,2.6814,2.6821,2.688,2.6903,2.6946,2.7005,2.7083,2.7134,2.7208,2.7338,2.7355,2.7396,2.7409,2.742,2.7433,2.7507,2.7527,2.7317,2.7317,2.7317,0,0,2.6528,2.6573,2.6618,2.6717,2.6761,2.6838,2.679,2.6874,2.6932,2.6917,2.7025,2.7059,2.7128,2.725,2.7306,2.7282,2.7494,2.7432,2.744,2.7447,2.7519,2.7539,2.7556,2.7324,2.7323,2.7322,0,0,2.6653,2.6693,2.6782,2.6827,2.6893,2.6915,2.6937,2.7001,2.7022,2.7131,2.7122,2.7194,2.7326,2.7376,2.7418,2.7566,2.7556,2.759,2.7659,2.7732,2.7749,2.7763,2.7818,2.7837,2.7602,2.7602,2.7603,0,2.6703,2.6817,2.6829,2.6914,2.696,2.6948,2.704,2.7084,2.7172,2.7205,2.7176,2.7343,2.7388,2.7524,2.756,2.7594,2.7622,2.7582,2.7745,2.776,2.7774,2.7826,2.7847,2.7606,2.7606,2.7605,2.7605,0,2.6877,2.6957,2.7021,2.7104,2.7157,2.7245,2.7274,2.7327,2.733,2.7357,2.7471,2.7525,2.7611,2.7643,2.7648,2.7781,2.7764,2.774,2.7688,2.7797,2.7847,2.7867,2.7612,2.761,2.7609,2.7608,0,0,2.7028,2.7118,2.7142,2.7181,2.7255,2.7318,2.7408,2.749,2.7536,2.7598,2.7676,2.779,2.7768,2.7817,2.7827,2.7891,2.8007,2.7859,2.7861,2.7886,2.8161,2.8179,2.8202,2.8001,2.8005,2.8008,2.8156,0,2.716,2.7315,2.7331,2.7471,2.7547,2.7539,2.7617,2.7673,2.7701,2.7772,2.7805,2.7885,2.785,2.788,2.7942,2.798,2.8063,2.7969,2.8077,2.808,2.806,2.8228,2.8247,2.8384,2.8175,2.8179,2.8181,0,2.7335,2.7401,2.7548,2.7614,2.7647,2.7716,2.7795,2.7862,2.7927,2.7943,2.7999,2.8001,2.8098,2.8042,2.8177,2.8113,2.8158,2.8184,2.819,2.8201,2.8137,2.8245,2.8427,2.8448,2.8211,2.8209,2.8207,0,2.7432,2.7558,2.7663,2.7697,2.7776,2.7826,2.7862,2.7922,2.7972,2.8042,2.8075,2.8156,2.8201,2.8265,2.8291,2.8248,2.8426,2.8372,2.8445,2.8444,2.8483,2.848,2.8676,2.851,2.851,2.851,2.8509,0,2.7579,2.767,2.7708,2.7773,2.7877,2.7895,2.7998,2.8032,2.8087,2.8161,2.8159,2.8229,2.8259,2.8335,2.8356,2.8466,2.8486,2.8505,2.8509,2.8505,2.8503,2.8535,2.8527,2.8515,2.8514,2.8513,2.8512,0,2.7705,2.7733,2.7848,2.7914,2.7933,2.8006,2.8064,2.8129,2.8157,2.8251,2.8274,2.832,2.8409,2.8442,2.8551,2.8565,2.8694,2.869,2.8671,2.8672,2.8744,2.8738,2.8969,2.9001,2.8813,2.8815,2.8816,0,2.7796,2.7866,2.794,2.7988,2.8025,2.8104,2.8154,2.8177,2.8231,2.8311,2.8367,2.8456,2.8528,2.8672,2.8717,2.8801,2.8801,2.8876,2.8813,2.8808,2.8804,2.88,2.8808,2.8888,2.889,2.8891,2.8892,0,2.7957,2.7969,2.8041,2.8119,2.818,2.8243,2.8304,2.8345,2.8378,2.8439,2.8529,2.8585,2.8697,2.8786,2.8873,2.8914,2.891,2.8912,2.8934,2.893,2.8917,2.8927,2.8704,2.8906,2.8905,2.8904,2.8903,2.8903,2.807,2.8133,2.8195,2.8276,2.8325,2.8383,2.8448,2.8485,2.856,2.8651,2.8661,2.876,2.8827,2.8943,2.8987,2.9067,2.9047,2.9078,2.9086,2.9094,2.91,2.8904,2.9083,2.9083,2.9082,2.9082,2.9082,0,2.8232,2.8272,2.8347,2.8433,2.8498,2.8487,2.8556,2.8612,2.8698,2.8759,2.883,2.8937,2.9024,2.9077,2.9165,2.9219,2.922,2.9242,2.9239,2.9249,2.9112,2.9085,2.924,2.924,2.924,2.924,2.924,2.924,2.8324,2.843,2.845,2.8583,2.8623,2.8718,2.8758,2.8813,2.8863,2.8981,2.9053,2.9086,2.9146,2.9239,2.932,2.9333,2.9367,2.9391,2.9403,2.9274,2.9258,2.9242,2.9217,2.9398,2.9398,2.9534,2.9535,2.9536]},{"header":{"parameterUnit":"m.s-1","parameterCategory":1,"la1":30.2991,"la2":30.254,"lo1":-89.0895,"lo2":-89.0444,"dy":0.0017,"dx":0.0017,"nx":28,"ny":28,"refTime":"2025-06-08T03:00:00:Z","depth":0,"parameterNumber":3,"parameterNumberName":"V-component_of_WINDS"},"data":[0,0,0,0,0,0,0,0,0,0,0,0,0,0,0,0,0,0,0,0,0,0,0,0,0,0,0,0,0,0,0,0,0,0,0,0,0,0,0,0,0,0,0,0,0,0,0,0,0,0,0,0,0,0,0,0,0,0,7.0076,7.0079,0,7.0355,7.0358,7.0361,7.0394,7.0392,7.0389,7.0386,7.0661,7.0671,7.068,0,0,0,0,0,0,0,0,0,0,0,0,0,6.9562,6.9571,7.0076,7.008,7.0083,7.0355,7.0358,7.0362,7.0395,7.0392,7.0388,7.0385,7.0658,7.067,7.0681,0,0,0,0,0,0,0,0,0,0,0,0,0,6.9807,6.9574,7.0076,7.0132,7.014,7.0354,7.0359,7.0363,7.0396,7.0391,7.0387,7.0384,7.0654,7.0668,7.0683,7.0856,0,0,7.0728,7.0735,0,0,0,0,0,0,0,0,6.9793,6.9826,7.0121,7.0129,7.0138,7.0336,7.0278,7.0528,7.0397,7.0298,7.0386,7.0382,7.0556,7.0578,7.0639,7.0869,7.088,7.0729,7.0738,7.0745,7.0749,0,0,0,0,0,0,0,6.9776,6.9814,7.0186,7.0125,7.0136,7.014,7.0171,7.0325,7.0446,7.0307,7.031,7.0343,7.0559,7.0625,7.0646,7.0884,7.0729,7.0742,7.0751,7.0757,7.1268,7.1272,0,0,0,0,0,0,6.975,6.9799,7.0177,7.0195,6.9952,7.0153,7.0187,7.0276,7.0445,7.0466,7.0346,7.0343,7.0602,7.0628,7.0655,7.0869,7.0745,7.0758,7.0767,7.1263,7.1269,7.1274,0,0,0,0,0,0,6.9739,6.9783,7.0166,6.9998,7.0047,7.0166,7.0266,7.0284,7.035,7.0475,7.0495,7.0391,7.0599,7.0635,7.0806,7.0879,7.0765,7.0779,7.1258,7.1265,7.1272,7.1296,0,0,0,0,0,0,6.9724,6.9779,6.9849,7.0,7.0056,7.0316,7.0271,7.0292,7.0376,7.0375,7.0522,7.0543,7.0599,7.0784,7.0821,7.0897,7.079,7.1252,7.1261,7.1269,7.1289,7.1303,7.1315,0,0,0,0,0,6.9705,6.9842,6.9852,6.9897,7.0146,7.032,7.0352,7.0417,7.0382,7.0451,7.0531,7.0538,7.0865,7.0801,7.0843,7.0925,7.1247,7.1258,7.1269,7.1284,7.13,7.1315,0,0,0,0,0,0,6.9693,6.9863,6.9876,7.0066,7.0179,7.0325,7.0415,7.0432,7.0554,7.0548,7.062,7.0653,7.0821,7.089,7.0816,7.11,7.1052,7.1072,7.1049,7.1066,7.1079,7.1059,7.0802,0,0,0,0,0,6.9713,6.9844,6.9984,7.0138,7.0194,7.0295,7.0372,7.0413,7.0531,7.0577,7.067,7.0781,7.0909,7.0991,7.1115,7.1299,7.133,7.1375,7.1388,7.1398,7.1414,7.1515,7.1536,7.1309,7.1309,7.1309,0,0,6.9755,6.9864,6.9941,7.0138,7.023,7.036,7.0334,7.0473,7.0569,7.0597,7.0766,7.0838,7.0966,7.1144,7.1227,7.1207,7.1483,7.1411,7.1418,7.1429,7.1528,7.1549,7.1568,7.1316,7.1315,7.1314,0,0,6.9898,6.9994,7.0134,7.0227,7.0367,7.0433,7.0466,7.0611,7.066,7.0832,7.0855,7.0968,7.1187,7.1278,7.1352,7.1528,7.1538,7.1566,7.1633,7.173,7.1748,7.1765,7.1827,7.1848,7.1581,7.1582,7.1582,0,6.9931,7.0132,7.0202,7.0341,7.0426,7.0461,7.0601,7.0686,7.0858,7.0914,7.089,7.1165,7.1254,7.1453,7.1496,7.1556,7.1593,7.155,7.1741,7.1758,7.1774,7.1834,7.1857,7.1584,7.1584,7.1583,7.1583,0,7.0165,7.0304,7.0399,7.0569,7.0664,7.0802,7.089,7.0977,7.1009,7.1076,7.1248,7.1356,7.1503,7.1553,7.1583,7.1756,7.1739,7.1727,7.168,7.1797,7.1854,7.1878,7.1588,7.1587,7.1586,7.1585,0,0,7.0309,7.0516,7.055,7.0627,7.0785,7.0891,7.1029,7.1176,7.1249,7.1366,7.1482,7.1667,7.1656,7.1741,7.1781,7.1867,7.1999,7.1844,7.1848,7.1869,7.2194,7.2203,7.2229,7.2006,7.2011,7.2015,7.2183,0,7.047,7.0723,7.0789,7.1002,7.113,7.1164,7.1284,7.1391,7.1457,7.1572,7.1643,7.1773,7.175,7.1801,7.1887,7.1965,7.2065,7.1953,7.2113,7.2117,7.208,7.2259,7.2269,7.2423,7.2206,7.221,7.2213,0,7.0692,7.0818,7.1044,7.1185,7.1241,7.1349,7.1488,7.1599,7.1719,7.1761,7.1856,7.1889,7.203,7.1976,7.2171,7.2094,7.2162,7.221,7.2217,7.2235,7.2172,7.2281,7.2474,7.2496,7.2249,7.2246,7.2244,0,7.0774,7.0999,7.1164,7.1229,7.1397,7.1472,7.1544,7.1662,7.1746,7.1866,7.192,7.2054,7.2127,7.2228,7.2294,7.2249,7.2483,7.2435,7.2519,7.2518,7.2567,7.2563,7.2774,7.2611,7.2611,7.2611,7.261,0,7.0947,7.1084,7.1203,7.1305,7.1458,7.1531,7.168,7.1753,7.1857,7.1971,7.2006,7.2111,7.2193,7.2308,7.236,7.2513,7.2545,7.258,7.2593,7.2578,7.2573,7.2624,7.2615,7.2617,7.2615,7.2614,7.2613,0,7.1065,7.115,7.1332,7.1477,7.1517,7.1624,7.1746,7.1843,7.191,7.2053,7.2091,7.2194,7.2332,7.2408,7.2579,7.2614,7.2784,7.2791,7.2745,7.275,7.283,7.2822,7.3081,7.3118,7.293,7.2932,7.2933,0,7.117,7.1277,7.1434,7.1515,7.159,7.1718,7.1805,7.1879,7.1967,7.2113,7.2192,7.2332,7.2449,7.2665,7.2753,7.2883,7.2893,7.2975,7.2913,7.2894,7.2894,7.2887,7.2898,7.2986,7.2987,7.2989,7.299,0,7.1347,7.1384,7.151,7.165,7.1753,7.1866,7.1978,7.204,7.2133,7.2229,7.2372,7.2462,7.2638,7.2776,7.2913,7.2983,7.3002,7.3009,7.3035,7.3021,7.299,7.3008,7.2774,7.3003,7.3001,7.3,7.3,7.2999,7.1462,7.1558,7.1685,7.1822,7.1915,7.2019,7.2118,7.2198,7.232,7.2472,7.2507,7.2657,7.2773,7.296,7.3034,7.315,7.3134,7.3172,7.3182,7.319,7.3193,7.2972,7.3175,7.3174,7.3174,7.3174,7.3174,0,7.164,7.1724,7.185,7.2007,7.2115,7.2126,7.225,7.2338,7.2471,7.258,7.2694,7.2857,7.299,7.3089,7.3224,7.3297,7.3309,7.333,7.3325,7.3341,7.32,7.3163,7.3319,7.3319,7.3319,7.3319,7.3319,7.3319,7.1746,7.1911,7.1962,7.2171,7.2252,7.2403,7.2472,7.2567,7.2654,7.2836,7.2948,7.3013,7.3117,7.326,7.3381,7.3407,7.3454,7.3475,7.3501,7.3367,7.3351,7.3336,7.3303,7.3485,7.3485,7.3633,7.3634,7.3635]}]]